Weather History for LHPA - November, 2013

Change the Weather History Date:

Thursday, November 14, 2013

  Actual Average Record
Temperature  
Mean Temperature 39 °F -  
Max Temperature 46 °F - - ()
Min Temperature 32 °F - - ()
Degree Days  
Heating Degree Days 26    
Moisture  
Dew Point 36 °F    
Average Humidity 86    
Maximum Humidity 100    
Minimum Humidity 57    
Precipitation  
Precipitation 0.00 in - - ()
Sea Level Pressure  
Sea Level Pressure 30.20 in    
Wind  
Wind Speed 4 mph ()    
Max Wind Speed 11 mph    
Max Gust Speed 16 mph    
Visibility 4.3 miles    
Events Rain    
T = Trace of Precipitation, MM = Missing Value Source: Averaged Metar Reports

Daily Weather History Graph

Daily Weather History Graph

Search for Another Location

Airport or City:

Trip Planner

Search our weather history database for the weather conditions in past years. The results will help you decide how hot, cold, wet, or windy it might be!

Date:

Astronomy

Nov. 14, 2013 Rise Set
Actual Time 6:52 AM CET 4:15 PM CET
Civil Twilight 6:19 AM CET 4:48 PM CET
Nautical Twilight 5:42 AM CET 5:25 PM CET
Astronomical Twilight 5:06 AM CET 6:01 PM CET
Moon 2:37 PM CET (11/14) 3:17 AM CET (11/14)
Length of Visible Light 10h 29m
Length of Day
9h 22m
Waxing Gibbous, 90% of the Moon is Illuminated
Nov 14
Waxing Gibbous
Nov 17
Full
Nov 25
Last Quarter
Dec 3
New
Dec 9
First Quarter

Hourly Weather History & Observations

Time (CET) Temp. Windchill Dew Point Humidity Pressure Visibility Wind Dir Wind Speed Gust Speed Precip Events Conditions
12:15 AM 39.2 °F 32.2 °F 37.4 °F 93% 30.33 in 3.7 mi North 11.2 mph - N/A   Unknown
12:45 AM 39.2 °F 33.1 °F 37.4 °F 93% 30.33 in 3.7 mi North 8.9 mph - N/A   Unknown
1:15 AM 37.4 °F 30.9 °F 35.6 °F 93% 30.33 in 3.7 mi North 8.9 mph - N/A   Unknown
1:45 AM 35.6 °F 30.0 °F 35.6 °F 100% 30.30 in 3.7 mi NNW 6.7 mph - N/A   Unknown
1:51 AM 35.6 °F 30.0 °F 35.6 °F 100% 30.30 in 3.1 mi NNW 6.7 mph - N/A   Partly Cloudy
2:15 AM 35.6 °F 30.0 °F 35.6 °F 100% 30.30 in 3.1 mi NNW 6.7 mph - N/A   Partly Cloudy
2:45 AM 35.6 °F 31.8 °F 35.6 °F 100% 30.30 in 3.1 mi North 4.5 mph - N/A   Partly Cloudy
3:15 AM 37.4 °F - 35.6 °F 93% 30.30 in 3.1 mi Calm Calm - N/A   Partly Cloudy
3:45 AM 33.8 °F - 33.8 °F 100% 30.27 in 3.1 mi Calm Calm - N/A   Partly Cloudy
4:15 AM 33.8 °F - 33.8 °F 100% 30.27 in 2.5 mi Calm Calm - N/A   Partly Cloudy
4:45 AM 32.0 °F - 32.0 °F 100% 30.27 in 2.5 mi Calm Calm - N/A   Partly Cloudy
5:15 AM 32.0 °F - 32.0 °F 100% 30.27 in 2.5 mi Calm Calm - N/A   Mist
5:45 AM 33.8 °F - 33.8 °F 100% 30.24 in 2.5 mi Calm Calm - N/A   Mist
6:15 AM 35.6 °F - 35.6 °F 100% 30.24 in 2.5 mi Calm Calm - N/A   Mostly Cloudy
6:45 AM 37.4 °F - 35.6 °F 93% 30.24 in 2.5 mi Calm Calm - N/A   Mostly Cloudy
7:15 AM 37.4 °F - 35.6 °F 93% 30.24 in 2.5 mi Calm Calm - N/A   Mostly Cloudy
7:19 AM 37.4 °F - 35.6 °F 93% 30.24 in 3.1 mi Calm Calm - N/A   Mostly Cloudy
7:45 AM 37.4 °F - 35.6 °F 93% 30.24 in 3.1 mi NW 2.2 mph - N/A   Mostly Cloudy
8:15 AM 37.4 °F - 35.6 °F 93% 30.24 in 3.1 mi West 2.2 mph - N/A   Mostly Cloudy
8:45 AM 37.4 °F 33.9 °F 35.6 °F 93% 30.24 in 3.7 mi West 4.5 mph - N/A   Mostly Cloudy
9:15 AM 37.4 °F - 35.6 °F 93% 30.21 in 3.7 mi West 2.2 mph - N/A   Mostly Cloudy
9:45 AM 39.2 °F - 35.6 °F 87% 30.21 in 3.7 mi Calm Calm - N/A   Mostly Cloudy
10:15 AM 39.2 °F - 37.4 °F 93% 30.21 in 3.7 mi Calm Calm - N/A   Overcast
10:45 AM 41.0 °F - 37.4 °F 87% 30.21 in 3.7 mi West 2.2 mph - N/A   Overcast
11:15 AM 42.8 °F - 39.2 °F 87% 30.18 in 3.7 mi Calm Calm - N/A   Overcast
11:45 AM 42.8 °F - 39.2 °F 87% 30.18 in 3.7 mi Calm Calm - N/A   Overcast
12:15 PM 42.8 °F - 39.2 °F 87% 30.15 in 3.7 mi Calm Calm - N/A   Overcast
12:45 PM 44.6 °F - 39.2 °F 81% 30.15 in 3.7 mi Calm Calm - N/A   Mostly Cloudy
1:15 PM 44.6 °F - 39.2 °F 81% 30.15 in 3.7 mi Calm Calm - N/A   Mostly Cloudy
1:45 PM 44.6 °F - 39.2 °F 81% 30.15 in 5.0 mi North 2.2 mph - N/A   Mostly Cloudy
2:15 PM 44.6 °F - 41.0 °F 87% 30.12 in 5.0 mi NNE 2.2 mph - N/A   Mostly Cloudy
2:45 PM 44.6 °F - 41.0 °F 87% 30.12 in 5.0 mi Calm Calm - N/A   Mostly Cloudy
3:15 PM 44.6 °F - 39.2 °F 81% 30.12 in 5.0 mi Calm Calm - N/A   Mostly Cloudy
3:45 PM 46.4 °F 43.0 °F 32.0 °F 57% 30.12 in 6.2 mi ESE 6.7 mph - N/A   Mostly Cloudy
4:15 PM 44.6 °F 40.8 °F 32.0 °F 61% 30.12 in 6.2 mi ESE 6.7 mph - N/A   Overcast
4:45 PM 44.6 °F 40.8 °F 33.8 °F 66% 30.12 in 6.2 mi ESE 6.7 mph - N/A   Overcast
5:15 PM 44.6 °F 40.8 °F 33.8 °F 66% 30.12 in 6.2 mi ESE 6.7 mph - N/A   Overcast
5:45 PM 44.6 °F 40.8 °F 33.8 °F 66% 30.12 in 6.2 mi East 6.7 mph - N/A   Overcast
6:15 PM 44.6 °F - 33.8 °F 66% 30.12 in 6.2 mi East 2.2 mph - N/A   Overcast
6:45 PM 44.6 °F - 33.8 °F 66% 30.12 in 6.2 mi ENE 2.2 mph - N/A   Overcast
7:15 PM 44.6 °F - 35.6 °F 71% 30.12 in 6.2 mi East 2.2 mph 13.4 mph N/A   Overcast
7:45 PM 44.6 °F - 33.8 °F 66% 30.12 in 6.2 mi East 2.2 mph - N/A   Overcast
8:15 PM 44.6 °F - 33.8 °F 66% 30.12 in 6.2 mi NE 2.2 mph 15.7 mph N/A   Overcast
8:45 PM 44.6 °F 42.3 °F 37.4 °F 76% 30.12 in 6.2 mi NNE 4.5 mph - N/A   Overcast
9:15 PM 44.6 °F 42.3 °F 37.4 °F 76% 30.12 in 6.2 mi NNE 4.5 mph - N/A   Overcast
9:45 PM 42.8 °F 40.2 °F 37.4 °F 81% 30.15 in 6.2 mi North 4.5 mph - N/A   Overcast
10:15 PM 42.8 °F 40.2 °F 37.4 °F 81% 30.15 in 6.2 mi North 4.5 mph - N/A   Overcast
10:45 PM 42.8 °F 40.2 °F 37.4 °F 81% 30.15 in 6.2 mi North 4.5 mph - N/A   Overcast
11:15 PM 42.8 °F 38.7 °F 39.2 °F 87% 30.15 in 6.2 mi ENE 6.7 mph - N/A   Overcast
11:45 PM 41.0 °F 38.1 °F 41.0 °F 100% 30.15 in 3.7 mi NE 4.5 mph - N/A Rain Light Rain